SWA387 MMUN-KDEN

Flight info

Callsign SWA387
Flight time N/A
Altitude 36000
Route NOSUG2A NOSUG UT27 OMVIP UT45 ALKIM DCT KEHLI A766 SBI DCT KF09E/N0460F380 DCT FUZ DCT KK36A DCT TOTOE DCT HALEN NIIXX4
Aircraft B38M/M-SDE1FGHILORVWXY/HB1

Departure

Time 2026-04-30 21:57
Airport Cancún International Airport (MMUN)

Arrival

Time N/A
Airport Denver International Airport (KDEN)
Time Latitude Longitude Altitude Speed Heading
2026-04-30 20:56 21.04769 -86.88293 26 ft 0 kts 137°
2026-04-30 21:37 21.04764 -86.88289 26 ft 0 kts 137°
2026-04-30 21:44 21.04775 -86.88299 26 ft 3 kts 139°
2026-04-30 21:44 21.04788 -86.88309 26 ft 3 kts 147°
2026-04-30 21:44 21.04803 -86.88320 26 ft 2 kts 147°
2026-04-30 21:44 21.04814 -86.88328 27 ft 3 kts 147°
2026-04-30 21:45 21.04830 -86.88338 27 ft 2 kts 147°
2026-04-30 21:45 21.04836 -86.88342 27 ft 3 kts 147°
2026-04-30 21:45 21.04851 -86.88352 27 ft 3 kts 180°
2026-04-30 21:45 21.04858 -86.88351 27 ft 0 kts 193°
2026-04-30 21:48 21.04855 -86.88352 27 ft 1 kts 199°
2026-04-30 21:49 21.04835 -86.88364 27 ft 7 kts 211°
2026-04-30 21:49 21.04772 -86.88408 27 ft 14 kts 212°
2026-04-30 21:49 21.04682 -86.88470 27 ft 16 kts 212°
2026-04-30 21:49 21.04584 -86.88538 27 ft 18 kts 213°
2026-04-30 21:50 21.04482 -86.88612 27 ft 13 kts 214°
2026-04-30 21:50 21.04457 -86.88664 27 ft 6 kts 295°
2026-04-30 21:50 21.04488 -86.88717 27 ft 13 kts 303°
2026-04-30 21:50 21.04559 -86.88830 27 ft 23 kts 304°
2026-04-30 21:51 21.04639 -86.88965 27 ft 11 kts 290°
2026-04-30 21:51 21.04610 -86.89026 27 ft 6 kts 216°
2026-04-30 21:51 21.04608 -86.89027 27 ft 0 kts 216°
2026-04-30 21:55 21.04607 -86.89028 27 ft 2 kts 216°
2026-04-30 21:55 21.04569 -86.89058 26 ft 11 kts 216°
2026-04-30 21:55 21.04521 -86.89075 27 ft 3 kts 151°
2026-04-30 21:56 21.04494 -86.89036 28 ft 19 kts 123°
2026-04-30 21:56 21.04280 -86.88694 28 ft 89 kts 124°
2026-04-30 21:56 21.03824 -86.87964 24 ft 144 kts 123°
2026-04-30 21:56 21.03235 -86.86986 374 ft 159 kts 123°
2026-04-30 21:57 21.02653 -86.85955 1062 ft 161 kts 124°
2026-04-30 21:57 21.02064 -86.84940 1763 ft 164 kts 121°
2026-04-30 21:57 21.01841 -86.83641 1983 ft 198 kts 82°
2026-04-30 21:57 21.02543 -86.82301 2300 ft 227 kts 42°
2026-04-30 21:58 21.03964 -86.81410 2774 ft 246 kts 31°
2026-04-30 21:58 21.05495 -86.80484 3366 ft 255 kts 32°
2026-04-30 21:58 21.07041 -86.79531 3815 ft 258 kts 32°
2026-04-30 21:58 21.08602 -86.78585 3933 ft 258 kts 27°
2026-04-30 21:59 21.10354 -86.78225 3956 ft 261 kts 357°
2026-04-30 21:59 21.12156 -86.78539 3989 ft 264 kts 351°
2026-04-30 21:59 21.13964 -86.78890 3987 ft 266 kts 351°
2026-04-30 22:00 21.17608 -86.79625 5447 ft 267 kts 350°
2026-04-30 22:00 21.21297 -86.80347 6954 ft 272 kts 350°
2026-04-30 22:00 21.23140 -86.80704 7661 ft 275 kts 350°
2026-04-30 22:01 21.25034 -86.81070 8372 ft 278 kts 350°
2026-04-30 22:01 21.26948 -86.81441 9090 ft 281 kts 350°
2026-04-30 22:01 21.28884 -86.81818 9790 ft 284 kts 351°
2026-04-30 22:01 21.30839 -86.82198 10383 ft 292 kts 351°
2026-04-30 22:02 21.32901 -86.82598 10646 ft 310 kts 351°
2026-04-30 22:02 21.35094 -86.83025 10863 ft 330 kts 351°
2026-04-30 22:02 21.37404 -86.83474 11184 ft 344 kts 351°
2026-04-30 22:02 21.39780 -86.83936 11829 ft 346 kts 351°
2026-04-30 22:03 21.42160 -86.84400 12515 ft 349 kts 351°
2026-04-30 22:03 21.44554 -86.84867 13182 ft 351 kts 351°
2026-04-30 22:03 21.46972 -86.85338 13842 ft 354 kts 351°
2026-04-30 22:03 21.49410 -86.85813 14500 ft 358 kts 351°
2026-04-30 22:04 21.51872 -86.86293 15149 ft 361 kts 351°
2026-04-30 22:04 21.54359 -86.86778 15807 ft 364 kts 351°
2026-04-30 22:04 21.59394 -86.87760 17055 ft 372 kts 350°
2026-04-30 22:05 21.61945 -86.88258 17657 ft 374 kts 350°
2026-04-30 22:05 21.64518 -86.88761 18240 ft 378 kts 350°
2026-04-30 22:05 21.67120 -86.89269 18817 ft 381 kts 350°
2026-04-30 22:05 21.69737 -86.89780 19401 ft 383 kts 350°
2026-04-30 22:06 21.72366 -86.90295 19957 ft 385 kts 349°
2026-04-30 22:06 21.77682 -86.91334 21023 ft 391 kts 349°
2026-04-30 22:06 21.80366 -86.91859 21541 ft 393 kts 349°
2026-04-30 22:07 21.83065 -86.92388 22027 ft 396 kts 349°
2026-04-30 22:07 21.85790 -86.92893 22510 ft 398 kts 353°
2026-04-30 22:07 21.88561 -86.93090 22979 ft 401 kts 355°
2026-04-30 22:07 21.91351 -86.93297 23434 ft 403 kts 355°
2026-04-30 22:08 21.94163 -86.93524 23869 ft 406 kts 354°
2026-04-30 22:08 21.96985 -86.93762 24309 ft 408 kts 354°
2026-04-30 22:08 21.99785 -86.94002 24714 ft 411 kts 354°
2026-04-30 22:08 22.02644 -86.94249 25137 ft 413 kts 354°
2026-04-30 22:09 22.05558 -86.94502 25513 ft 416 kts 354°
2026-04-30 22:09 22.08417 -86.94750 25881 ft 419 kts 354°
2026-04-30 22:09 22.11324 -86.95002 26255 ft 421 kts 354°
2026-04-30 22:09 22.14249 -86.95256 26630 ft 423 kts 354°
2026-04-30 22:10 22.17191 -86.95511 26976 ft 425 kts 354°
2026-04-30 22:10 22.20150 -86.95769 27320 ft 428 kts 354°
2026-04-30 22:10 22.23126 -86.96027 27674 ft 429 kts 354°
2026-04-30 22:10 22.26113 -86.96287 27993 ft 432 kts 354°
2026-04-30 22:11 22.32138 -86.96811 28620 ft 436 kts 354°
2026-04-30 22:11 22.35170 -86.97075 28931 ft 438 kts 354°
2026-04-30 22:11 22.38223 -86.97341 29199 ft 441 kts 354°
2026-04-30 22:12 22.41287 -86.97608 29512 ft 443 kts 354°
2026-04-30 22:12 22.44357 -86.97876 29924 ft 441 kts 354°
2026-04-30 22:12 22.47409 -86.98142 30313 ft 440 kts 354°
2026-04-30 22:12 22.50462 -86.98408 30692 ft 440 kts 354°
2026-04-30 22:13 22.53510 -86.98674 31108 ft 438 kts 354°
2026-04-30 22:13 22.56542 -86.98939 31508 ft 437 kts 354°
2026-04-30 22:13 22.59574 -86.99204 31885 ft 436 kts 354°
2026-04-30 22:13 22.62548 -86.99464 32268 ft 434 kts 354°
2026-04-30 22:14 22.65555 -86.99727 32611 ft 433 kts 354°
2026-04-30 22:14 22.68558 -86.99990 32978 ft 432 kts 354°
2026-04-30 22:14 22.71547 -87.00251 33332 ft 431 kts 354°
2026-04-30 22:14 22.74534 -87.00513 33684 ft 430 kts 354°
2026-04-30 22:15 22.77506 -87.00773 34029 ft 428 kts 354°
2026-04-30 22:15 22.80475 -87.01033 34372 ft 427 kts 354°
2026-04-30 22:15 22.83440 -87.01293 34676 ft 427 kts 354°
2026-04-30 22:15 22.86400 -87.01553 34982 ft 426 kts 354°
2026-04-30 22:16 22.89350 -87.01812 35292 ft 425 kts 354°
2026-04-30 22:16 22.92294 -87.02070 35585 ft 424 kts 354°
2026-04-30 22:17 23.01099 -87.02844 35865 ft 421 kts 353°
2026-04-30 22:17 23.09161 -87.05957 35886 ft 418 kts 326°
2026-04-30 22:18 23.16242 -87.11467 35881 ft 420 kts 324°
2026-04-30 22:19 23.23288 -87.17128 35881 ft 420 kts 324°
2026-04-30 22:20 23.30352 -87.22827 35883 ft 422 kts 323°
2026-04-30 22:20 23.37423 -87.28540 35870 ft 422 kts 323°
2026-04-30 22:21 23.42108 -87.32329 35880 ft 423 kts 323°
2026-04-30 22:21 23.46833 -87.36155 35881 ft 424 kts 323°
2026-04-30 22:22 23.51560 -87.39985 35882 ft 424 kts 323°
2026-04-30 22:22 23.56293 -87.43824 35883 ft 425 kts 323°
2026-04-30 22:23 23.61036 -87.47675 35879 ft 425 kts 323°
2026-04-30 22:23 23.65782 -87.51531 35887 ft 426 kts 323°
2026-04-30 22:24 23.70519 -87.55414 35883 ft 426 kts 319°
2026-04-30 22:24 23.72491 -87.57808 35868 ft 425 kts 303°
2026-04-30 22:24 23.73789 -87.60675 35902 ft 429 kts 294°
2026-04-30 22:25 23.76009 -87.66753 35892 ft 431 kts 293°
2026-04-30 22:25 23.78143 -87.72872 35888 ft 431 kts 292°
2026-04-30 22:26 23.81294 -87.82074 35887 ft 432 kts 292°
2026-04-30 22:27 23.83390 -87.88213 35882 ft 431 kts 292°
2026-04-30 22:27 23.86528 -87.97420 35886 ft 431 kts 292°
2026-04-30 22:28 23.89646 -88.06592 35880 ft 431 kts 292°
2026-04-30 22:29 23.93814 -88.18883 35880 ft 431 kts 292°
2026-04-30 22:31 24.01089 -88.40421 35884 ft 431 kts 292°
2026-04-30 22:32 24.06261 -88.55806 35860 ft 431 kts 292°
2026-04-30 22:33 24.11069 -88.70159 35857 ft 431 kts 291°
2026-04-30 22:35 24.16207 -88.85552 35865 ft 430 kts 291°
2026-04-30 22:36 24.21308 -89.00894 35855 ft 430 kts 291°
2026-04-30 22:37 24.25386 -89.13200 35858 ft 430 kts 291°
2026-04-30 22:38 24.29464 -89.25546 35864 ft 430 kts 290°
2026-04-30 22:39 24.32515 -89.34809 35857 ft 430 kts 290°
2026-04-30 22:40 24.38594 -89.53325 35873 ft 431 kts 290°
2026-04-30 22:41 24.43662 -89.68823 35867 ft 431 kts 290°
2026-04-30 22:43 24.51639 -89.86105 35885 ft 433 kts 322°
2026-04-30 22:44 24.61441 -89.93818 35870 ft 435 kts 323°
2026-04-30 22:45 24.76324 -90.05220 35880 ft 435 kts 322°
2026-04-30 22:47 24.91202 -90.16645 35876 ft 434 kts 322°
2026-04-30 22:48 25.01115 -90.24276 35872 ft 434 kts 322°
2026-04-30 22:49 25.15910 -90.35695 35875 ft 433 kts 322°
2026-04-30 22:51 25.30712 -90.47154 35887 ft 433 kts 322°
2026-04-30 22:52 25.38079 -90.52870 35888 ft 433 kts 322°
2026-04-30 22:53 25.47928 -90.60525 35887 ft 432 kts 321°
2026-04-30 22:53 25.55309 -90.66272 35887 ft 432 kts 321°
2026-04-30 22:55 25.67599 -90.75863 35898 ft 432 kts 321°
2026-04-30 22:56 25.77426 -90.83547 35890 ft 432 kts 321°
2026-04-30 22:57 25.89684 -90.93156 35897 ft 431 kts 321°
2026-04-30 22:58 25.99459 -91.00837 35898 ft 431 kts 321°
2026-04-30 22:59 26.14113 -91.12380 35899 ft 429 kts 321°